Printer-friendly version

IAU Minor Planet Center

Minor Planet Center

MPEC 2005-C51 : 2005 CG41

The following Minor Planet Electronic Circular may be linked-to from your own Web pages, but must not otherwise be redistributed electronically.


Read MPEC 2005-C50 Read MPEC 2005-C52


M.P.E.C. 2005-C51                                Issued 2005 Feb. 11, 11:50 UT

     The Minor Planet Electronic Circulars contain information on unusual
         minor planets and routine data on comets.  They are published
   on behalf of Commission 20 of the International Astronomical Union by the
          Minor Planet Center, Smithsonian Astrophysical Observatory,
                          Cambridge, MA 02138, U.S.A.

                  Supported in part by the Brinson Foundation
             Prepared using the Tamkin Foundation Computer Network

                              MPC@CFA.HARVARD.EDU
          URL http://cfa-www.harvard.edu/iau/mpc.html  ISSN 1523-6714

                                   2005 CG41

Observations:
     K05C41G*9C2005 02 10.10890 09 14 16.96 +24 01 29.3          20.5 R EC051809
     K05C41G 9C2005 02 10.11513 09 14 15.70 +24 02 17.2          21.1 R EC051809
     K05C41G 9C2005 02 10.12117 09 14 14.50 +24 03 01.5          20.8 R EC051809
     K05C41G 9C2005 02 11.11891 09 11 19.33 +26 02 01.9          20.5 R EC051809
     K05C41G 9C2005 02 11.12279 09 11 18.61 +26 02 28.9          20.6 R EC051809
     K05C41G 9C2005 02 11.12662 09 11 17.86 +26 02 54.9          20.7 R EC051809
     K05C41G 9C2005 02 11.13461 09 11 16.35 +26 03 49.8          21.0 R EC051809
     K05C41G  C2005 02 11.15573 09 11 13.39 +26 05 23.6          21.1 R EC051649
     K05C41G  C2005 02 11.16283 09 11 12.20 +26 06 09.9          20.6 R EC051649
     K05C41G  C2005 02 11.16993 09 11 10.57 +26 07 02.2          22.3 R EC051649
     K05C41G  C2005 02 11.17704 09 11 09.44 +26 07 49.4          21.2 R EC051649
     K05C41G 9C2005 02 11.25399 09 10 53.69 +26 17 24.7          20.5 R EC051809
     K05C41G 9C2005 02 11.25535 09 10 53.43 +26 17 33.6          20.8 R EC051809
     K05C41G 9C2005 02 11.25670 09 10 53.19 +26 17 42.6          20.9 R EC051809
     K05C41G 9C2005 02 11.25805 09 10 52.92 +26 17 51.7          20.6 R EC051809
     K05C41G 9C2005 02 11.25935 09 10 52.67 +26 18 00.9          20.4 R EC051809

Observer details:
649 Powell Observatory, Louisburg.  Observers R. Fredrick, R. Trentman.
    0.75-m Newtonian reflector + CCD.
809 European Southern Observatory, La Silla.  Observers A. Boattini, F. Selman.
    Measurers A. Boattini, H. Scholl.  2.2-m f/5.9 reflector + CCD.

Orbital elements:
2005 CG41
Epoch 2005 Jan. 30.0 TT = JDT 2453400.5                 MPC
M  75.20749              (2000.0)            P               Q
n   0.90227278     Peri.  238.41979     +0.90527363     -0.31344518
a   1.0606631      Node   137.82612     +0.34591706     +0.93570638
e   0.3565478      Incl.   25.28491     -0.24661921     +0.16188173
P   1.09           H   24.0           G   0.15
From 14 observations 2005 Feb. 10-11.

Ephemeris:
2005 CG41                a,e,i = 1.06, 0.36, 25                  q = 0.6825
Date    TT    R. A. (2000) Decl.     Delta      r     Elong.  Phase     V
2005 02 09    09 17.67   +21 36.7    0.167    1.152   172.5     6.5    20.9
2005 02 11    09 11.64   +25 47.6    0.180    1.163   166.7    11.3    21.3
2005 02 13    09 06.19   +29 20.7    0.194    1.173   161.5    15.5    21.6
2005 02 15    09 01.32   +32 20.8    0.210    1.184   156.9    19.1    21.9
2005 02 17    08 57.02   +34 52.7    0.226    1.194   152.8    22.2    22.2
2005 02 19    08 53.26   +37 00.6    0.243    1.203   149.1    25.0    22.5

Kyle E. Smalley              (C) Copyright 2005 MPC           M.P.E.C. 2005-C51

Read MPEC 2005-C50 Read MPEC 2005-C52


Our Web policy. Index to the CBAT/MPC/ICQ pages.


Valid HTML 4.01!